• Processing (Info)

  • MPEC 2013-T55 : 2013 TE6

    The following Minor Planet Electronic Circular may be linked-to from your own Web pages, but must not otherwise be redistributed electronically.

    A form allowing access to any MPEC is at the bottom of this page.


    Read MPEC 2013-T54 Read MPEC 2013-T56


    M.P.E.C. 2013-T55                                Issued 2013 Oct. 7, 01:13 UT
    
         The Minor Planet Electronic Circulars contain information on unusual
             minor planets and routine data on comets.  They are published
       on behalf of Commission 20 of the International Astronomical Union by the
              Minor Planet Center, Smithsonian Astrophysical Observatory,
                              Cambridge, MA 02138, U.S.A.
    
                 Prepared using the Tamkin Foundation Computer Network
    
                                  MPC@CFA.HARVARD.EDU
                URL http://www.minorplanetcenter.net/    ISSN 1523-6714
    
                                       2013 TE6
    
    Observations:
         K13T06E* C2013 10 04.22354 00 47 16.95 +26 33 39.1          20.2 VqET055G96
         K13T06E  C2013 10 04.23038 00 47 17.91 +26 33 39.7          19.9 VqET055G96
         K13T06E  C2013 10 04.23718 00 47 18.84 +26 33 40.9          19.9 VqET055G96
         K13T06E  C2013 10 04.24402 00 47 19.79 +26 33 41.4          19.6 VqET055G96
         K13T06E  C2013 10 04.25642 00 47 21.37 +26 33 41.8          19.1 RtET055H01
         K13T06E  C2013 10 04.26090 00 47 21.99 +26 33 42.3          19.3 RtET055H01
         K13T06E  C2013 10 04.27130 00 47 23.43 +26 33 43.1          19.2 RtET055H01
         K13T06E  C2013 10 04.27977 00 47 24.61 +26 33 43.8          19.1 RtET055H01
         K13T06E  C2013 10 04.46215 00 47 50.45 +26 33 49.3          19.6 VqET055G96
         K13T06E  C2013 10 04.47343 00 47 52.09 +26 33 49.0          19.6 VqET055G96
         K13T06E  C2013 10 04.48465 00 47 53.76 +26 33 48.7          19.8 VqET055G96
         K13T06E KC2013 10 04.92478 00 49 05.39 +26 34 07.1          20.2 VqET055595
         K13T06E KC2013 10 04.93483 00 49 06.80 +26 34 07.4                qET055595
         K13T06E KC2013 10 04.94032 00 49 07.62 +26 34 07.5                qET055595
         K13T06E  C2013 10 05.27507 00 50 01.05 +26 34 23.8          19.9 VqET055G96
         K13T06E  C2013 10 05.27892 00 50 01.60 +26 34 23.9          20.3 VqET055G96
         K13T06E  C2013 10 05.28274 00 50 02.14 +26 34 24.0          20.2 VqET055G96
         K13T06E  C2013 10 05.28654 00 50 02.71 +26 34 24.1          19.8 VqET055G96
         K13T06E  C2013 10 06.24867 00 52 40.38 +26 34 09.2          19.3 RoET055926
         K13T06E KC2013 10 06.25035 00 52 40.46 +26 34 08.5          19.8 RqET055448
         K13T06E  C2013 10 06.25993 00 52 42.07 +26 34 09.0          19.5 RoET055926
         K13T06E KC2013 10 06.26603 00 52 42.79 +26 34 09.2          20.3 RqET055448
         K13T06E  C2013 10 06.27117 00 52 43.76 +26 34 08.8          19.4 RoET055926
         K13T06E KC2013 10 06.28078 00 52 45.04 +26 34 08.0          20.1 RqET055448
         K13T06E  C2013 10 06.31634 00 52 50.51 +26 34 06.9          19.2 RcET055854
         K13T06E  C2013 10 06.31995 00 52 51.08 +26 34 06.4          19.4 RcET055854
         K13T06E  C2013 10 06.32356 00 52 51.64 +26 34 05.4          19.2 RcET055854
         K13T06E  C2013 10 06.32442 00 52 51.76 +26 34 05.4          19.6 VqET055G96
         K13T06E  C2013 10 06.32572 00 52 51.96 +26 34 05.3          20.0 VqET055G96
         K13T06E  C2013 10 06.32701 00 52 52.16 +26 34 05.1          19.6 VqET055G96
         K13T06E  C2013 10 06.32831 00 52 52.35 +26 34 05.0          19.8 VqET055G96
         K13T06E  C2013 10 06.32961 00 52 52.54 +26 34 04.9          20.0 VqET055G96
         K13T06E  C2013 10 06.51285 00 53 25.37 +26 33 50.0          19.5 RoET055300
         K13T06E  C2013 10 06.52215 00 53 26.74 +26 33 50.3          19.6 RoET055300
         K13T06E  C2013 10 06.52565 00 53 27.32 +26 33 49.2          19.6 RoET055300
         K13T06E  C2013 10 06.52942 00 53 27.93 +26 33 49.8          19.6 RoET055300
         K13T06E KC2013 10 06.89602300 54 29.89 +26 33 17.2          19.6 VuET055I93
         K13T06E KC2013 10 06.90587300 54 31.45 +26 33 16.9          19.9 VuET055I93
         K13T06E KC2013 10 06.91572300 54 32.99 +26 33 16.7          19.9 VuET055I93
    
    Observer details:
    300 Bisei Spaceguard Center--BATTeRS.  Observers S. Okumura, N. Hashimoto.
        1.0-m f/3.0 reflector + CCD.
    448 Desert Moon Observatory.  Observer B. L. Stevens.  0.3-m
        Schmidt-Cassegrain + CCD.
    595 Farra d'Isonzo.  Observer E. Pettarin.  0.61-m f/4.0 reflector + CCD.
    854 Sabino Canyon Observatory, Tucson.  Observer J. E. McGaha.  0.36-m f/10.0
        Schmidt-Cassegrain + CCD.
    926 Tenagra II Observatory.  Observers M. Schwartz, P. R. Holvorcem.  0.81-m
        f/7 Ritchey-Chretien + CCD.
    G96 Mt. Lemmon Survey.  Observers J. A. Johnson, R. E. Hill.  Measurers
        A. Boattini, E. J. Christensen, A. R. Gibbs, A. D. Grauer, R. E. Hill,
        J. A. Johnson, R. A. Kowalski, S. M. Larson, F. C. Shelly.  1.5-m
        reflector + CCD.
    H01 Magdalena Ridge Observatory, Socorro.  Observer W. H. Ryan.  2.4-m f/8.9
        reflector + CCD.
    I93 St Pardon de Conques.  Observer F. Losse.  0.40-m f/3.7 reflector + CCD.
    
    Orbital elements:
    2013 TE6                                                 Earth MOID = 0.1365 AU
    Epoch 2013 Nov. 4.0 TT = JDT 2456600.5                  MPC
    M 358.32069              (2000.0)            P               Q
    n   0.26263102     Peri.  187.05318     +0.65956277     -0.74690650
    a   2.4149346      Node   221.73044     +0.69566366     +0.64906085
    e   0.5335537      Incl.    7.27650     +0.28465597     +0.14439773
    P   3.75           H   21.9           G   0.15           U   7
    Residuals in seconds of arc
    131004 G96  0.0   0.0     131004 595  0.1+  0.2-    131006 854  0.1+  0.2-
    131004 G96  0.0   0.2-    131005 G96  0.1-  0.2-    131006 G96  0.0   0.1-
    131004 G96  0.2-  0.2+    131005 G96  0.2-  0.2-    131006 G96  0.0   0.1-
    131004 G96  0.2-  0.0     131005 G96  0.4-  0.2-    131006 G96  0.1+  0.2-
    131004 H01  0.0   0.0     131005 G96  0.1-  0.2-    131006 G96  0.0   0.2-
    131004 H01  0.0   0.1+    131006 926  0.0   0.3+    131006 G96  0.0   0.3-
    131004 H01  0.0   0.0     131006 448  0.2+  0.0     131006 300  0.6+  0.3-
    131004 H01  0.1+  0.1+    131006 926  0.1-  0.3+    131006 300  0.4-  0.0
    131004 G96  0.2+  0.1+    131006 448  0.2-  1.0+    131006 300  0.1+  1.1-
    131004 G96  0.0   0.0     131006 926  0.1-  0.3+    131006 300  0.5+  0.5-
    131004 G96  0.2+  0.1+    131006 448  0.3+  0.3+    131006 I93  0.0   0.1-
    131004 595  0.4+  0.1+    131006 854  0.5-  0.8+    131006 I93  0.1-  0.0
    131004 595  0.2-  0.1-    131006 854  0.1-  0.5+    131006 I93  0.4-  0.2+
    
    Ephemeris:
    2013 TE6                 a,e,i = 2.41, 0.53, 7                   q = 1.1264
    Date    TT    R. A. (2000) Decl.     Delta      r     Elong.  Phase     V
    2013 09 07    00 02 34.6 +22 28 18   0.3823  1.3468   147.8    23.5    21.6
    ...
    2013 09 22    00 22 16.8 +25 25 29   0.2838  1.2640   153.4    20.8    20.7
    ...
    2013 09 30    00 37 18.0 +26 21 30   0.2408  1.2257   156.2    19.3    20.2
    ...
    2013 10 06    00 51 58.2 +26 34 22   0.2129  1.2003   158.4    17.8    19.9
    2013 10 07    00 54 46.2 +26 33 24   0.2086  1.1964   158.8    17.6    19.8
    2013 10 08    00 57 41.0 +26 31 25   0.2044  1.1926   159.2    17.3    19.7
    ...
    2013 10 14    01 17 44.2 +25 55 24   0.1816  1.1716   162.1    15.1    19.4
    ...
    2013 10 22    01 51 48.3 +23 47 58   0.1577  1.1495   167.1    11.2    18.9
    ...
    2013 11 06    03 11 35.7 +15 03 54   0.1371  1.1276   173.4     5.8    18.3
    
    A. U. Tomatic                (C) Copyright 2013 MPC           M.P.E.C. 2013-T55
    

    Read MPEC 2013-T54 Read MPEC 2013-T56


    MPEC number:

    Enter an MPEC number in one of the following forms:

    • 1997-B01 (the full form)
    • J97B01 (the packed version of the full form)
    • B01 (the abbreviated form)